CZ-6A DEB, 54403

Orbit data source: Space-Track

CZ-6A DEB, 54403 is space debris in SSO originally from a launch on Fri, 11 Nov 2022 UTC launched from the Taiyaun Space Center, China (TSC). Debris objects in space refer to the collection of defunct objects orbiting the Earth. Examples of debris include non-operational satellites, rocket bodies, and fragments generated from explosions, collisions, or faulty payload assembly.

Loading next visibility...
Identifier
54403, 2022-151EB
Orbit
SSO
Country
Flag of CNCN / PRC
Related business
Manufacturer
SAST
Mission
Spacecraft
Bus & Motor
Unknown
Mass
Unknown
Launch date (UTC)
2022-11-11 (4 years ago)
Launch vehicle
Unknown
Launch site
Taiyaun Space Center, China (TSC)
Object type
Payload
Rocket body
Debris
Shape & HBR
Unknown shape, 0.1 m
Radar Cross Section
Medium (>0.1 m² and <1 m²)

Expand to show TLE details & history
Last TLE update: 2 days ago

TLE from 2 days ago
0 CZ-6A DEB
1 54403U 22151EB  26171.40380727  .00003758  00000-0  13651-2 0  9996
2 54403  98.6828 165.8598 0108779 167.4748 192.9178 14.30603761186430
Epoch: 2026-06-20T09:41Z
TLE epoch observation values (Epoch: 2026-06-20T09:41:28.948Z)
Latitude
0.00006°
Longitude
111.87025°
Altitude
868.699 km
Speed
7.379 km/s
True Right ascension
11h 03m 26s
True Declination
0° 00' 00"
Sunlit
Object was in daylight at epoch
Visualization orbit readout
Latitude
Unknown
Longitude
Unknown
Altitude
Unknown
Speed
Unknown
Apparent Right ascension
Unknown
Apparent Declination
Unknown
Sunlit
N/A
Visualization observer readout
Local Sidereal Time
21:36:51
Azimuth
Unknown
Elevation
Unknown
Doppler factor
Unknown
Orbital elements
Apogee altitude
864.796 km
Perigee altitude
708.916 km
Semi-major axis
7,164.993 km
Eccentricity
0.01088
Inclination
98.6828°
RAAN
165.8598°
Arg. of periapsis
167.4748°
True anomaly
192.64279°
Mean anomaly
192.9178°
Eccentric anomaly
192.77993°
Mean motion
3.57865 °/min
Orbital period
100.6 mins
BSTAR
0.0013651
Loading maneuver chart data...
Computing Atmospheric mass density...
Loading historical data...
Loading historical data...
Loading historical data...
Loading historical data...
Loading historical data...
Loading historical data...
Loading historical data...

Documentation

Showing up to 5 results
|